International Falls, MN

4:58 AM CDT on September 22, 2017 (GMT -0500)
Falls International

Weather History for KINL - December, 2013

Change the Weather History Date:

Friday, December 20, 2013

  Actual Average Record
Temperature  
Mean Temperature -1 °F 8 °F  
Max Temperature 14 °F 17 °F 47 °F (1956)
Min Temperature -16 °F -2 °F -40 °F (1983)
Degree Days  
Heating Degree Days 66 57  
Month to date heating degree days 1347 1066  
Since 1 July heating degree days 3705 3527  
Cooling Degree Days 0 0  
Month to date cooling degree days 0 0  
Year to date cooling degree days 224 192  
Moisture  
Dew Point -3 °F    
Average Humidity 75    
Maximum Humidity 83    
Minimum Humidity 67    
Precipitation  
Precipitation T in 0.02 in 0.75 in (1967)
Month to date precipitation 1.18 0.53  
Year to date precipitation 31.58 23.94  
Snow  
Snow T in 0.50 in 8.50 in (1990)
Month to date snowfall 21.0 9.6  
Since 1 July snowfall 31.9 25.6  
Snow Depth 12.00 in    
Sea Level Pressure  
Sea Level Pressure 30.03 in    
Wind  
Wind Speed 5 mph (SW)    
Max Wind Speed 14 mph    
Max Gust Speed 17 mph    
Visibility 10 miles    
Events Snow    
T = Trace of Precipitation, MM = Missing Value Source: NWS Daily Summary

Daily Weather History Graph

Daily Weather History Graph

Search for Another Location

Airport or City:

Trip Planner

Search our weather history database for the weather conditions in past years. The results will help you decide how hot, cold, wet, or windy it might be!

Date:

Astronomy

Dec. 20, 2013 Rise Set
Actual Time 8:02 AM CST 4:20 PM CST
Civil Twilight 7:25 AM CST 4:57 PM CST
Nautical Twilight 6:45 AM CST 5:37 PM CST
Astronomical Twilight 6:07 AM CST 6:15 PM CST
Moon 7:56 PM CST (12/20) 9:43 AM CST (12/20)
Length of Visible Light 9h 31m
Length of Day
8h 17m
Waning Gibbous, 90% of the Moon is Illuminated
Dec 20
Waning Gibbous
Dec 25
Last Quarter
Jan 1
New
Jan 7
First Quarter
Jan 15
Full

Hourly Weather History & Observations

Time (CST) Temp. Windchill Dew Point Humidity Pressure Visibility Wind Dir Wind Speed Gust Speed Precip Events Conditions
12:55 AM -11.0 °F -20.4 °F -16.1 °F 78% 30.22 in 10.0 mi SSW 3.5 mph - N/A   Clear
1:55 AM -13.0 °F - -18.9 °F 75% 30.20 in 10.0 mi Calm Calm - N/A   Clear
2:55 AM -14.1 °F -26.3 °F -20.0 °F 75% 30.19 in 10.0 mi SSW 4.6 mph - N/A   Clear
3:55 AM -14.1 °F - -20.0 °F 75% 30.16 in 10.0 mi Calm Calm - N/A   Clear
4:55 AM -13.0 °F -22.7 °F -20.0 °F 71% 30.14 in 10.0 mi SW 3.5 mph - N/A   Clear
5:55 AM -11.0 °F -24.6 °F -17.0 °F 75% 30.13 in 10.0 mi SW 5.8 mph - N/A   Clear
6:55 AM -11.0 °F -24.6 °F -16.1 °F 78% 30.12 in 10.0 mi SW 5.8 mph - N/A   Clear
7:55 AM -9.0 °F - -16.1 °F 71% 30.10 in 10.0 mi Calm Calm - N/A   Clear
8:55 AM -8.0 °F -19.2 °F -11.9 °F 83% 30.09 in 10.0 mi SSW 4.6 mph - N/A   Clear
9:55 AM -0.9 °F -14.1 °F -6.0 °F 79% 30.08 in 10.0 mi SSW 6.9 mph - N/A   Scattered Clouds
10:55 AM 3.0 °F -6.4 °F -2.0 °F 80% 30.06 in 10.0 mi SW 4.6 mph - N/A   Clear
11:55 AM 9.0 °F -4.2 °F 1.0 °F 70% 30.03 in 10.0 mi SW 9.2 mph - N/A   Clear
12:55 PM 12.0 °F 1.5 °F 3.9 °F 70% 30.00 in 10.0 mi SW 6.9 mph - N/A   Clear
1:48 PM 12.2 °F -1.0 °F 5.0 °F 73% 29.88 in 10.0 mi WSW 10.4 mph 16.1 mph N/A   Mostly Cloudy
1:55 PM 12.9 °F -0.2 °F 5.0 °F 71% 29.99 in 10.0 mi SW 10.4 mph - N/A   Overcast
2:07 PM 12.2 °F 0.7 °F 5.0 °F 73% 29.88 in 10.0 mi WSW 8.1 mph - N/A   Overcast
2:55 PM 12.9 °F 0.7 °F 5.0 °F 71% 29.98 in 10.0 mi SW 9.2 mph - N/A   Overcast
3:55 PM 12.9 °F 1.6 °F 6.1 °F 74% 29.97 in 10.0 mi WSW 8.1 mph - N/A   Overcast
4:55 PM 12.0 °F 5.9 °F 6.1 °F 77% 29.96 in 10.0 mi SW 3.5 mph - N/A   Overcast
5:55 PM 12.9 °F 1.6 °F 6.1 °F 74% 29.93 in 10.0 mi SW 8.1 mph - N/A   Overcast
6:55 PM 12.9 °F 2.6 °F 6.1 °F 74% 29.93 in 10.0 mi SW 6.9 mph - N/A   Overcast
7:55 PM 12.0 °F 4.1 °F 6.1 °F 77% 29.93 in 10.0 mi SSW 4.6 mph - N/A   Overcast
8:55 PM 10.9 °F 1.4 °F 5.0 °F 77% 29.94 in 10.0 mi SSW 5.8 mph - N/A   Overcast
9:55 PM 10.0 °F - 5.0 °F 80% 29.93 in 9.0 mi Calm Calm - N/A   Overcast
10:55 PM 10.0 °F - 5.0 °F 80% 29.92 in 7.0 mi Calm Calm - N/A   Overcast
11:55 PM 10.0 °F - 5.0 °F 80% 29.91 in 5.0 mi Calm Calm - 0.00 in Snow Light Snow